Time,TemperatureF,DewpointF,PressureIn,WindDirection,WindDirectionDegrees,WindSpeedMPH,WindSpeedGustMPH,Humidity,HourlyPrecipIn,Conditions,Clouds,dailyrainin,SoftwareType,DateUTC
2013-10-29 00:01:00,34.3,30.0,29.17,West,260,1.0,1.0,84,0.00,,,0.00,Wunderground v.1.15,2013-10-29 08:01:00,
2013-10-29 00:10:00,35.2,30.0,29.17,WNW,286,3.0,5.0,81,0.00,,,0.00,Wunderground v.1.15,2013-10-29 08:10:00,
2013-10-29 00:20:00,34.7,29.8,29.17,WNW,290,3.0,3.0,82,0.00,,,0.00,Wunderground v.1.15,2013-10-29 08:20:00,
2013-10-29 00:30:00,34.4,29.5,29.17,South,180,3.0,3.0,82,0.00,,,0.00,Wunderground v.1.15,2013-10-29 08:30:00,
2013-10-29 00:36:00,33.8,29.2,29.17,South,180,2.0,3.0,83,0.00,,,0.00,Wunderground v.1.15,2013-10-29 08:36:00,
2013-10-29 00:45:00,34.0,29.4,29.18,South,180,1.0,2.0,83,0.00,,,0.00,Wunderground v.1.15,2013-10-29 08:45:00,
2013-10-29 00:55:00,33.2,28.9,29.18,South,180,0.0,1.0,84,0.00,,,0.00,Wunderground v.1.15,2013-10-29 08:55:00,
2013-10-29 01:01:00,32.7,28.7,29.19,South,179,0.0,0.0,85,0.00,,,0.00,Wunderground v.1.15,2013-10-29 09:01:00,
2013-10-29 01:10:00,32.2,28.8,29.19,South,179,0.0,0.0,87,0.00,,,0.00,Wunderground v.1.15,2013-10-29 09:10:00,
2013-10-29 01:15:00,33.2,29.8,29.19,North,5,2.0,3.0,87,0.00,,,0.00,Wunderground v.1.15,2013-10-29 09:15:00,
2013-10-29 01:20:00,33.5,29.2,29.19,North,354,3.0,3.0,84,0.00,,,0.00,Wunderground v.1.15,2013-10-29 09:20:00,
2013-10-29 01:30:00,34.4,29.8,29.20,NNE,12,5.0,5.0,83,0.00,,,0.00,Wunderground v.1.15,2013-10-29 09:30:00,
2013-10-29 01:40:00,33.7,29.4,29.20,ENE,61,3.0,3.0,84,0.00,,,0.00,Wunderground v.1.15,2013-10-29 09:40:00,
2013-10-29 01:50:00,32.9,28.6,29.20,ENE,61,1.0,1.0,84,0.00,,,0.00,Wunderground v.1.15,2013-10-29 09:50:00,
2013-10-29 01:55:00,31.6,27.9,29.20,South,180,1.0,1.0,86,0.00,,,0.00,Wunderground v.1.15,2013-10-29 09:55:00,
2013-10-29 02:05:00,31.6,28.7,29.22,South,180,1.0,3.0,89,0.00,,,0.00,Wunderground v.1.15,2013-10-29 10:05:00,
2013-10-29 02:15:00,31.8,28.4,29.22,NNW,345,1.0,2.0,87,0.00,,,0.00,Wunderground v.1.15,2013-10-29 10:15:00,
2013-10-29 02:25:00,32.8,29.1,29.22,North,8,4.0,6.0,86,0.00,,,0.00,Wunderground v.1.15,2013-10-29 10:25:00,
2013-10-29 02:30:00,32.5,28.8,29.23,North,6,4.0,4.0,86,0.00,,,0.00,Wunderground v.1.15,2013-10-29 10:30:00,
2013-10-29 02:40:00,33.4,30.2,29.23,NNE,29,4.0,6.0,88,0.00,,,0.00,Wunderground v.1.15,2013-10-29 10:40:00,
2013-10-29 02:50:00,33.8,30.3,29.23,NE,36,4.0,4.0,87,0.00,,,0.00,Wunderground v.1.15,2013-10-29 10:50:00,
2013-10-29 03:00:00,34.4,30.6,29.23,NE,35,5.0,6.0,86,0.00,,,0.00,Wunderground v.1.15,2013-10-29 11:00:00,
2013-10-29 03:10:00,34.7,30.9,29.23,NNE,29,3.0,3.0,86,0.00,,,0.00,Wunderground v.1.15,2013-10-29 11:10:00,
2013-10-29 03:20:00,32.1,28.9,29.24,SSW,210,1.0,1.0,88,0.00,,,0.00,Wunderground v.1.15,2013-10-29 11:20:00,
2013-10-29 03:35:00,32.2,28.5,29.25,SSW,205,0.0,0.0,86,0.00,,,0.00,Wunderground v.1.15,2013-10-29 11:35:00,
2013-10-29 03:45:00,32.8,29.1,29.25,NNW,347,2.0,6.0,86,0.00,,,0.00,Wunderground v.1.15,2013-10-29 11:45:00,
2013-10-29 03:50:00,32.2,28.5,29.25,North,5,4.0,6.0,86,0.00,,,0.00,Wunderground v.1.15,2013-10-29 11:50:00,
2013-10-29 04:00:00,32.4,29.0,29.25,NNW,341,4.0,4.0,87,0.00,,,0.00,Wunderground v.1.15,2013-10-29 12:00:00,
2013-10-29 04:05:00,31.6,28.2,29.25,NNW,345,2.0,4.0,87,0.00,,,0.00,Wunderground v.1.15,2013-10-29 12:05:00,
2013-10-29 04:15:00,32.4,29.2,29.25,NNW,344,1.0,3.0,88,0.00,,,0.00,Wunderground v.1.15,2013-10-29 12:15:00,
2013-10-29 04:20:00,33.2,29.5,29.25,North,354,2.0,2.0,86,0.00,,,0.00,Wunderground v.1.15,2013-10-29 12:20:00,
2013-10-29 04:30:00,32.5,28.5,29.25,North,354,1.0,1.0,85,0.00,,,0.00,Wunderground v.1.15,2013-10-29 12:30:00,
2013-10-29 04:36:00,31.2,27.8,29.25,North,354,1.0,1.0,87,0.00,,,0.00,Wunderground v.1.15,2013-10-29 12:36:00,
2013-10-29 04:45:00,31.3,28.4,29.26,North,354,1.0,1.0,89,0.00,,,0.00,Wunderground v.1.15,2013-10-29 12:45:00,
2013-10-29 04:55:00,32.1,29.5,29.26,North,354,0.0,1.0,90,0.00,,,0.00,Wunderground v.1.15,2013-10-29 12:55:00,
2013-10-29 05:00:00,31.9,28.5,29.27,North,354,1.0,2.0,87,0.00,,,0.00,Wunderground v.1.15,2013-10-29 13:00:00,
2013-10-29 05:10:00,30.4,27.5,29.27,North,354,1.0,1.0,89,0.00,,,0.00,Wunderground v.1.15,2013-10-29 13:10:00,
2013-10-29 05:15:00,30.1,27.5,29.27,North,354,0.0,1.0,90,0.00,,,0.00,Wunderground v.1.15,2013-10-29 13:15:00,
2013-10-29 05:25:00,29.7,27.4,29.27,North,354,1.0,1.0,91,0.00,,,0.00,Wunderground v.1.15,2013-10-29 13:25:00,
2013-10-29 05:35:00,34.3,31.4,29.27,North,359,2.0,6.0,89,0.00,,,0.00,Wunderground v.1.15,2013-10-29 13:35:00,
2013-10-29 05:40:00,34.6,30.3,29.27,North,359,3.0,3.0,84,0.00,,,0.00,Wunderground v.1.15,2013-10-29 13:40:00,
2013-10-29 05:50:00,34.1,30.1,29.28,North,6,4.0,4.0,85,0.00,,,0.00,Wunderground v.1.15,2013-10-29 13:50:00,
2013-10-29 05:55:00,32.8,28.5,29.28,North,6,3.0,4.0,84,0.00,,,0.00,Wunderground v.1.15,2013-10-29 13:55:00,
2013-10-29 06:05:00,30.7,27.3,29.28,North,6,0.0,1.0,87,0.00,,,0.00,Wunderground v.1.15,2013-10-29 14:05:00,
2013-10-29 06:10:00,30.4,27.8,29.28,North,6,0.0,0.0,90,0.00,,,0.00,Wunderground v.1.15,2013-10-29 14:10:00,
2013-10-29 06:20:00,30.3,27.2,29.29,NNW,340,3.0,5.0,88,0.00,,,0.00,Wunderground v.1.15,2013-10-29 14:20:00,
2013-10-29 06:30:00,30.7,28.4,29.29,NNE,26,3.0,3.0,91,0.00,,,0.00,Wunderground v.1.15,2013-10-29 14:30:00,
2013-10-29 06:40:00,30.6,28.3,29.29,North,11,2.0,2.0,91,0.00,,,0.00,Wunderground v.1.15,2013-10-29 14:40:00,
2013-10-29 06:45:00,30.1,27.5,29.30,North,11,1.0,2.0,90,0.00,,,0.00,Wunderground v.1.15,2013-10-29 14:45:00,
2013-10-29 06:55:00,28.1,25.3,29.30,NNE,12,0.0,1.0,89,0.00,,,0.00,Wunderground v.1.15,2013-10-29 14:55:00,
2013-10-29 07:05:00,27.8,25.5,29.30,NNE,12,1.0,1.0,91,0.00,,,0.00,Wunderground v.1.15,2013-10-29 15:05:00,
2013-10-29 07:15:00,28.2,26.7,29.31,North,11,0.0,0.0,94,0.00,,,0.00,Wunderground v.1.15,2013-10-29 15:15:00,
2013-10-29 07:25:00,28.2,26.4,29.31,North,11,0.0,0.0,93,0.00,,,0.00,Wunderground v.1.15,2013-10-29 15:25:00,
2013-10-29 07:35:00,27.9,26.4,29.31,North,11,0.0,0.0,94,0.00,,,0.00,Wunderground v.1.15,2013-10-29 15:35:00,
2013-10-29 07:40:00,27.5,25.7,29.31,North,11,0.0,0.0,93,0.00,,,0.00,Wunderground v.1.15,2013-10-29 15:40:00,
2013-10-29 07:50:00,26.9,25.1,29.31,North,11,0.0,0.0,93,0.00,,,0.00,Wunderground v.1.15,2013-10-29 15:50:00,
2013-10-29 08:00:00,26.7,25.2,29.32,North,11,0.0,2.0,94,0.00,,,0.00,Wunderground v.1.15,2013-10-29 16:00:00,
2013-10-29 08:10:00,26.7,25.5,29.32,North,11,2.0,2.0,95,0.00,,,0.00,Wunderground v.1.15,2013-10-29 16:10:00,
2013-10-29 08:20:00,26.4,25.2,29.33,North,11,2.0,2.0,95,0.00,,,0.00,Wunderground v.1.15,2013-10-29 16:20:00,
2013-10-29 08:25:00,25.1,23.6,29.33,North,11,2.0,2.0,94,0.00,,,0.00,Wunderground v.1.15,2013-10-29 16:25:00,
2013-10-29 08:35:00,25.1,23.9,29.33,North,11,0.0,1.0,95,0.00,,,0.00,Wunderground v.1.15,2013-10-29 16:35:00,
2013-10-29 08:40:00,25.4,24.4,29.33,North,11,0.0,2.0,96,0.00,,,0.00,Wunderground v.1.15,2013-10-29 16:40:00,
2013-10-29 08:50:00,26.0,25.3,29.33,North,11,0.0,0.0,97,0.00,,,0.00,Wunderground v.1.15,2013-10-29 16:50:00,
2013-10-29 09:00:00,26.7,26.2,29.34,North,11,0.0,2.0,98,0.00,,,0.00,Wunderground v.1.15,2013-10-29 17:00:00,
2013-10-29 09:10:00,27.3,26.8,29.34,North,11,2.0,2.0,98,0.00,,,0.00,Wunderground v.1.15,2013-10-29 17:10:00,
2013-10-29 09:15:00,27.8,27.1,29.34,North,11,2.0,2.0,97,0.00,,,0.00,Wunderground v.1.15,2013-10-29 17:15:00,
2013-10-29 09:25:00,26.9,25.4,29.34,North,11,0.0,1.0,94,0.00,,,0.00,Wunderground v.1.15,2013-10-29 17:25:00,
2013-10-29 09:35:00,26.6,25.4,29.34,North,11,1.0,2.0,95,0.00,,,0.00,Wunderground v.1.15,2013-10-29 17:35:00,
2013-10-29 09:40:00,27.2,26.0,29.34,North,11,1.0,2.0,95,0.00,,,0.00,Wunderground v.1.15,2013-10-29 17:40:00,
2013-10-29 09:50:00,27.2,26.0,29.34,NNE,12,2.0,2.0,95,0.00,,,0.00,Wunderground v.1.15,2013-10-29 17:50:00,
2013-10-29 10:00:00,26.6,25.1,29.35,NNE,12,2.0,2.0,94,0.00,,,0.00,Wunderground v.1.15,2013-10-29 18:00:00,
2013-10-29 10:10:00,26.1,24.6,29.35,NNE,12,1.0,1.0,94,0.00,,,0.00,Wunderground v.1.15,2013-10-29 18:10:00,
2013-10-29 10:20:00,25.7,24.2,29.35,NNE,12,1.0,2.0,94,0.00,,,0.00,Wunderground v.1.15,2013-10-29 18:20:00,
2013-10-29 10:30:00,25.6,24.1,29.36,NNE,12,1.0,1.0,94,0.00,,,0.00,Wunderground v.1.15,2013-10-29 18:30:00,
2013-10-29 10:40:00,26.1,24.9,29.36,NNE,12,1.0,1.0,95,0.00,,,0.00,Wunderground v.1.15,2013-10-29 18:40:00,
2013-10-29 10:50:00,26.3,25.1,29.36,NNE,12,1.0,1.0,95,0.00,,,0.00,Wunderground v.1.15,2013-10-29 18:50:00,
2013-10-29 10:55:00,26.4,25.2,29.36,NNE,12,2.0,3.0,95,0.00,,,0.00,Wunderground v.1.15,2013-10-29 18:55:00,
2013-10-29 11:05:00,26.7,25.2,29.37,NNE,12,2.0,2.0,94,0.00,,,0.00,Wunderground v.1.15,2013-10-29 19:05:00,
2013-10-29 11:15:00,26.9,25.4,29.37,NNE,12,1.0,2.0,94,0.00,,,0.00,Wunderground v.1.15,2013-10-29 19:15:00,
2013-10-29 11:25:00,27.5,25.7,29.37,NNE,12,0.0,1.0,93,0.00,,,0.00,Wunderground v.1.15,2013-10-29 19:25:00,
2013-10-29 11:35:00,27.9,25.9,29.37,NNE,12,1.0,1.0,92,0.00,,,0.00,Wunderground v.1.15,2013-10-29 19:35:00,
2013-10-29 11:45:00,28.8,26.8,29.37,NNE,12,0.0,2.0,92,0.00,,,0.00,Wunderground v.1.15,2013-10-29 19:45:00,
2013-10-29 11:55:00,29.4,26.8,29.37,NNE,12,1.0,1.0,90,0.00,,,0.00,Wunderground v.1.15,2013-10-29 19:55:00,
2013-10-29 12:05:00,29.5,26.9,29.38,NNE,12,1.0,1.0,90,0.00,,,0.00,Wunderground v.1.15,2013-10-29 20:05:00,
2013-10-29 12:15:00,30.0,26.9,29.38,NNE,12,0.0,0.0,88,0.00,,,0.00,Wunderground v.1.15,2013-10-29 20:15:00,
2013-10-29 12:25:00,30.0,26.9,29.38,NNE,12,1.0,3.0,88,0.00,,,0.00,Wunderground v.1.15,2013-10-29 20:25:00,
2013-10-29 12:35:00,30.1,26.7,29.38,NNE,12,1.0,2.0,87,0.00,,,0.00,Wunderground v.1.15,2013-10-29 20:35:00,
2013-10-29 12:40:00,30.3,27.2,29.38,NNE,12,0.0,0.0,88,0.00,,,0.00,Wunderground v.1.15,2013-10-29 20:40:00,
2013-10-29 12:50:00,29.4,26.3,29.38,NNE,12,2.0,3.0,88,0.00,,,0.00,Wunderground v.1.15,2013-10-29 20:50:00,
2013-10-29 13:00:00,29.0,26.4,29.38,NNE,12,1.0,1.0,90,0.00,,,0.00,Wunderground v.1.15,2013-10-29 21:00:00,
2013-10-29 13:10:00,29.7,27.1,29.38,NNE,12,1.0,2.0,90,0.00,,,0.00,Wunderground v.1.15,2013-10-29 21:10:00,
2013-10-29 13:20:00,30.7,27.6,29.38,NNE,12,1.0,4.0,88,0.00,,,0.00,Wunderground v.1.15,2013-10-29 21:20:00,
2013-10-29 13:30:00,31.9,28.5,29.38,NNE,12,0.0,0.0,87,0.00,,,0.00,Wunderground v.1.15,2013-10-29 21:30:00,
2013-10-29 13:40:00,32.5,28.2,29.38,NNE,12,0.0,1.0,84,0.00,,,0.00,Wunderground v.1.15,2013-10-29 21:40:00,
2013-10-29 13:45:00,32.7,28.4,29.37,NNE,12,1.0,2.0,84,0.00,,,0.00,Wunderground v.1.15,2013-10-29 21:45:00,
2013-10-29 13:55:00,33.1,28.8,29.37,NNE,12,1.0,2.0,84,0.00,,,0.00,Wunderground v.1.15,2013-10-29 21:55:00,
2013-10-29 14:05:00,33.7,29.1,29.37,NNE,12,1.0,2.0,83,0.00,,,0.00,Wunderground v.1.15,2013-10-29 22:05:00,
2013-10-29 14:15:00,34.9,29.7,29.37,NNE,12,1.0,2.0,81,0.00,,,0.00,Wunderground v.1.15,2013-10-29 22:15:00,
2013-10-29 14:25:00,35.8,29.3,29.37,NNE,12,1.0,2.0,77,0.00,,,0.00,Wunderground v.1.15,2013-10-29 22:25:00,
2013-10-29 14:35:00,36.2,29.7,29.37,NNE,12,1.0,2.0,77,0.00,,,0.00,Wunderground v.1.15,2013-10-29 22:35:00,
2013-10-29 14:45:00,36.6,29.7,29.37,NNE,12,1.0,1.0,76,0.00,,,0.00,Wunderground v.1.15,2013-10-29 22:45:00,
2013-10-29 14:50:00,36.6,28.8,29.37,NNE,12,1.0,1.0,73,0.00,,,0.00,Wunderground v.1.15,2013-10-29 22:50:00,
2013-10-29 15:00:00,37.0,28.5,29.37,NNE,12,1.0,4.0,71,0.00,,,0.00,Wunderground v.1.15,2013-10-29 23:00:00,
2013-10-29 15:10:00,36.9,29.1,29.37,NNE,12,1.0,1.0,73,0.00,,,0.00,Wunderground v.1.15,2013-10-29 23:10:00,
2013-10-29 15:20:00,37.0,28.8,29.37,NNE,12,0.0,0.0,72,0.00,,,0.00,Wunderground v.1.15,2013-10-29 23:20:00,
2013-10-29 15:30:00,37.0,29.1,29.37,NNE,12,1.0,2.0,73,0.00,,,0.00,Wunderground v.1.15,2013-10-29 23:30:00,
2013-10-29 15:40:00,37.6,29.4,29.37,NE,56,1.0,5.0,72,0.00,,,0.00,Wunderground v.1.15,2013-10-29 23:40:00,
2013-10-29 15:50:00,36.9,29.1,29.36,ENE,77,3.0,3.0,73,0.00,,,0.00,Wunderground v.1.15,2013-10-29 23:50:00,
2013-10-29 16:00:00,36.6,28.8,29.36,East,94,3.0,4.0,73,0.00,,,0.00,Wunderground v.1.15,2013-10-30 00:00:00,
2013-10-29 16:10:00,36.6,28.4,29.36,East,100,3.0,3.0,72,0.00,,,0.00,Wunderground v.1.15,2013-10-30 00:10:00,
2013-10-29 16:20:00,37.2,29.0,29.36,East,100,1.0,2.0,72,0.00,,,0.00,Wunderground v.1.15,2013-10-30 00:20:00,
2013-10-29 16:30:00,36.9,28.7,29.36,ESE,102,1.0,3.0,72,0.00,,,0.00,Wunderground v.1.15,2013-10-30 00:30:00,
2013-10-29 16:40:00,36.3,28.1,29.36,ESE,116,3.0,3.0,72,0.00,,,0.00,Wunderground v.1.15,2013-10-30 00:40:00,
2013-10-29 16:50:00,36.0,28.2,29.36,SE,132,4.0,4.0,73,0.00,,,0.00,Wunderground v.1.15,2013-10-30 00:50:00,
2013-10-29 17:00:00,35.8,28.0,29.35,ESE,122,4.0,4.0,73,0.00,,,0.00,Wunderground v.1.15,2013-10-30 01:00:00,
2013-10-29 17:10:00,35.3,27.5,29.35,SE,126,4.0,4.0,73,0.00,,,0.00,Wunderground v.1.15,2013-10-30 01:10:00,
2013-10-29 17:20:00,35.2,27.7,29.35,ESE,121,3.0,5.0,74,0.00,,,0.00,Wunderground v.1.15,2013-10-30 01:20:00,
2013-10-29 17:25:00,34.9,27.5,29.35,ESE,122,4.0,6.0,74,0.00,,,0.00,Wunderground v.1.15,2013-10-30 01:25:00,
2013-10-29 17:30:00,34.6,27.5,29.35,ESE,116,4.0,4.0,75,0.00,,,0.00,Wunderground v.1.15,2013-10-30 01:30:00,
2013-10-29 17:40:00,34.0,26.9,29.35,ESE,116,5.0,6.0,75,0.00,,,0.00,Wunderground v.1.15,2013-10-30 01:40:00,
2013-10-29 17:50:00,33.1,27.0,29.35,ESE,116,5.0,5.0,78,0.00,,,0.00,Wunderground v.1.15,2013-10-30 01:50:00,
2013-10-29 18:00:00,32.5,27.0,29.35,ESE,105,3.0,3.0,80,0.00,,,0.00,Wunderground v.1.15,2013-10-30 02:00:00,
2013-10-29 18:10:00,32.1,26.9,29.35,ESE,107,2.0,2.0,81,0.00,,,0.00,Wunderground v.1.15,2013-10-30 02:10:00,
2013-10-29 18:15:00,31.9,26.7,29.36,ESE,102,1.0,2.0,81,0.00,,,0.00,Wunderground v.1.15,2013-10-30 02:15:00,
2013-10-29 18:25:00,31.5,26.3,29.36,East,94,1.0,3.0,81,0.00,,,0.00,Wunderground v.1.15,2013-10-30 02:25:00,
2013-10-29 18:35:00,31.2,26.3,29.36,ENE,68,2.0,3.0,82,0.00,,,0.00,Wunderground v.1.15,2013-10-30 02:35:00,
2013-10-29 18:45:00,31.0,26.1,29.36,North,355,2.0,5.0,82,0.00,,,0.00,Wunderground v.1.15,2013-10-30 02:45:00,
2013-10-29 18:55:00,30.3,25.8,29.36,East,85,1.0,2.0,83,0.00,,,0.00,Wunderground v.1.15,2013-10-30 02:55:00,
2013-10-29 19:05:00,29.7,25.5,29.36,ENE,77,1.0,1.0,84,0.00,,,0.00,Wunderground v.1.15,2013-10-30 03:05:00,
2013-10-29 19:15:00,29.4,25.2,29.36,ENE,77,1.0,1.0,84,0.00,,,0.00,Wunderground v.1.15,2013-10-30 03:15:00,
2013-10-29 19:25:00,29.0,25.1,29.36,NE,42,2.0,7.0,85,0.00,,,0.00,Wunderground v.1.15,2013-10-30 03:25:00,
2013-10-29 19:30:00,29.0,25.1,29.36,NE,42,2.0,2.0,85,0.00,,,0.00,Wunderground v.1.15,2013-10-30 03:30:00,
2013-10-29 19:40:00,29.3,25.1,29.36,ENE,63,2.0,2.0,84,0.00,,,0.00,Wunderground v.1.15,2013-10-30 03:40:00,
2013-10-29 19:50:00,28.5,24.6,29.36,North,1,3.0,5.0,85,0.00,,,0.00,Wunderground v.1.15,2013-10-30 03:50:00,
2013-10-29 20:00:00,28.5,24.6,29.36,North,1,1.0,1.0,85,0.00,,,0.00,Wunderground v.1.15,2013-10-30 04:00:00,
2013-10-29 20:05:00,28.2,24.3,29.36,North,1,0.0,1.0,85,0.00,,,0.00,Wunderground v.1.15,2013-10-30 04:05:00,
2013-10-29 20:10:00,27.9,24.0,29.36,North,1,0.0,0.0,85,0.00,,,0.00,Wunderground v.1.15,2013-10-30 04:10:00,
2013-10-29 20:15:00,27.9,24.0,29.37,North,1,0.0,0.0,85,0.00,,,0.00,Wunderground v.1.15,2013-10-30 04:15:00,
2013-10-29 20:20:00,27.9,24.3,29.37,North,8,0.0,2.0,86,0.00,,,0.00,Wunderground v.1.15,2013-10-30 04:20:00,
2013-10-29 20:30:00,28.1,24.2,29.37,NNE,15,1.0,2.0,85,0.00,,,0.00,Wunderground v.1.15,2013-10-30 04:30:00,
2013-10-29 20:40:00,27.3,23.9,29.37,NNE,15,0.0,0.0,87,0.00,,,0.00,Wunderground v.1.15,2013-10-30 04:40:00,
2013-10-29 20:50:00,26.3,23.2,29.37,NNE,15,0.0,0.0,88,0.00,,,0.00,Wunderground v.1.15,2013-10-30 04:50:00,
2013-10-29 20:55:00,26.1,23.0,29.37,NNE,15,0.0,0.0,88,0.00,,,0.00,Wunderground v.1.15,2013-10-30 04:55:00,
2013-10-29 21:05:00,26.0,23.2,29.37,NNE,15,0.0,0.0,89,0.00,,,0.00,Wunderground v.1.15,2013-10-30 05:05:00,
2013-10-29 21:10:00,25.8,23.0,29.37,NNE,15,0.0,0.0,89,0.00,,,0.00,Wunderground v.1.15,2013-10-30 05:10:00,
2013-10-29 21:20:00,24.8,21.8,29.37,NNE,15,0.0,0.0,88,0.00,,,0.00,Wunderground v.1.15,2013-10-30 05:20:00,
2013-10-29 21:25:00,24.4,21.9,29.37,NNE,15,0.0,0.0,90,0.00,,,0.00,Wunderground v.1.15,2013-10-30 05:25:00,
2013-10-29 21:35:00,25.0,22.5,29.37,NNE,15,0.0,0.0,90,0.00,,,0.00,Wunderground v.1.15,2013-10-30 05:35:00,
2013-10-29 21:45:00,26.0,23.2,29.37,NNE,15,0.0,0.0,89,0.00,,,0.00,Wunderground v.1.15,2013-10-30 05:45:00,
2013-10-29 21:55:00,25.0,21.7,29.37,NNE,15,0.0,0.0,87,0.00,,,0.00,Wunderground v.1.15,2013-10-30 05:55:00,
2013-10-29 22:05:00,23.6,20.6,29.36,NNE,15,0.0,0.0,88,0.00,,,0.00,Wunderground v.1.15,2013-10-30 06:05:00,
2013-10-29 22:10:00,23.5,20.7,29.36,NNE,15,0.0,0.0,89,0.00,,,0.00,Wunderground v.1.15,2013-10-30 06:10:00,
2013-10-29 22:20:00,24.2,22.0,29.36,NNE,15,0.0,0.0,91,0.00,,,0.00,Wunderground v.1.15,2013-10-30 06:20:00,
2013-10-29 22:30:00,23.8,21.3,29.36,NNE,15,0.0,0.0,90,0.00,,,0.00,Wunderground v.1.15,2013-10-30 06:30:00,
2013-10-29 22:40:00,24.2,21.7,29.36,NNE,15,0.0,0.0,90,0.00,,,0.00,Wunderground v.1.15,2013-10-30 06:40:00,
2013-10-29 22:50:00,24.5,21.7,29.36,NNE,15,0.0,0.0,89,0.00,,,0.00,Wunderground v.1.15,2013-10-30 06:50:00,
2013-10-29 22:55:00,24.7,21.9,29.36,NNE,15,0.0,1.0,89,0.00,,,0.00,Wunderground v.1.15,2013-10-30 06:55:00,
2013-10-29 23:05:00,25.6,22.5,29.36,NNE,15,1.0,1.0,88,0.00,,,0.00,Wunderground v.1.15,2013-10-30 07:05:00,
2013-10-29 23:15:00,25.7,22.4,29.36,NNE,15,0.0,1.0,87,0.00,,,0.00,Wunderground v.1.15,2013-10-30 07:15:00,
2013-10-29 23:25:00,25.8,22.5,29.36,NNE,15,0.0,0.0,87,0.00,,,0.00,Wunderground v.1.15,2013-10-30 07:25:00,
2013-10-29 23:35:00,25.6,22.3,29.36,NNE,15,0.0,2.0,87,0.00,,,0.00,Wunderground v.1.15,2013-10-30 07:35:00,
2013-10-29 23:40:00,25.4,21.8,29.36,NNE,15,0.0,1.0,86,0.00,,,0.00,Wunderground v.1.15,2013-10-30 07:40:00,
2013-10-29 23:50:00,24.7,21.4,29.36,NNE,15,1.0,2.0,87,0.00,,,0.00,Wunderground v.1.15,2013-10-30 07:50:00,